period_start,C,m1,H,J0,J1,J2,J3,J4,J5,JA,JB,JC,JD,JJ,JK,JN,#
2014-02-17 00:00:54,-0.07,13.50,0.00,25.87,30.30,32.99,5.84,32.42,1031.67,2023.36,925.79,1306.99,1425.96,349.21,324.65,32.95,0000 0000 0000 0000 000000
2014-02-17 00:01:54,0.23,13.50,0.00,25.88,30.30,32.95,6.16,32.29,1031.66,2023.47,925.43,1306.98,1425.84,350.30,325.87,32.96,0000 0000 0000 0000 000000
2014-02-17 00:02:55,0.54,13.51,0.00,25.87,30.30,32.97,6.04,32.50,1031.66,2023.42,925.19,1306.96,1425.57,348.80,324.47,32.97,0000 0000 0000 0000 000000
2014-02-17 00:03:55,0.46,13.51,0.00,25.88,30.30,32.97,6.02,32.46,1031.65,2023.40,925.09,1306.89,1425.25,349.52,325.15,32.97,0000 0000 0000 0000 000000
2014-02-17 00:04:55,0.27,13.51,0.00,25.87,30.30,32.95,6.06,32.54,1031.63,2023.44,925.03,1306.58,1425.09,350.02,325.27,32.98,0000 0000 0000 0000 000000
2014-02-17 00:05:55,0.43,13.51,0.00,25.87,30.30,32.97,6.02,32.50,1031.68,2023.41,925.00,1306.30,1425.03,350.27,325.86,32.98,0000 0000 0000 0000 000000
2014-02-17 00:06:56,0.30,13.52,0.00,25.87,30.30,32.98,6.16,32.42,1031.72,2023.33,924.98,1306.14,1425.01,350.85,326.41,32.99,0000 0000 0000 0000 000000
2014-02-17 00:07:56,0.06,13.52,0.00,25.87,30.30,32.98,6.02,32.33,1031.75,2023.28,924.83,1306.06,1424.99,349.78,325.42,33.00,0000 0000 0000 0000 000000
2014-02-17 00:08:56,0.17,13.52,0.00,25.87,30.30,33.00,5.95,32.33,1031.75,2023.28,924.48,1306.03,1424.95,350.13,325.76,33.00,0000 0000 0000 0000 000000
2014-02-17 00:09:56,0.42,13.52,0.00,25.87,30.30,33.01,5.97,32.46,1031.75,2023.28,924.23,1306.01,1424.72,348.98,324.88,33.01,0000 0000 0000 0000 000000
2014-02-17 00:10:57,0.41,13.52,0.00,25.87,30.30,32.99,6.03,32.42,1031.75,2023.24,924.09,1306.00,1424.37,349.60,325.50,33.01,0000 0000 0000 0000 000000
2014-02-17 00:11:57,0.31,13.52,0.00,25.87,30.30,32.99,6.02,32.33,1031.75,2023.21,924.03,1305.97,1424.15,349.84,325.49,33.02,0000 0000 0000 0000 000000
2014-02-17 00:12:57,0.17,13.52,0.00,25.87,30.30,33.01,6.13,32.21,1031.75,2023.18,924.00,1305.89,1424.05,350.02,325.37,33.02,0000 0000 0000 0000 000000
2014-02-17 00:13:57,0.07,13.53,0.00,25.87,30.30,33.06,5.98,32.38,1031.75,2023.26,923.88,1305.71,1424.02,349.72,325.46,33.03,0000 0000 0000 0000 000000
2014-02-17 00:14:58,0.54,13.53,0.00,25.85,30.30,33.08,6.00,32.50,1031.75,2023.27,923.59,1305.44,1424.00,349.85,325.35,33.04,0000 0000 0000 0000 000000
2014-02-17 00:15:58,0.56,13.53,0.00,25.85,30.30,33.05,6.13,32.13,1031.75,2023.21,923.25,1305.20,1423.97,350.94,326.39,33.04,0000 0000 0000 0000 000000
2014-02-17 00:16:58,0.44,13.53,0.00,25.85,30.30,33.03,6.14,32.21,1031.75,2023.17,923.09,1305.08,1423.84,350.11,325.76,33.05,0000 0000 0000 0000 000000
2014-02-17 00:17:59,0.29,13.54,0.00,25.85,30.30,33.05,6.08,32.50,1031.75,2023.19,923.03,1305.02,1423.59,350.66,326.27,33.05,0000 0000 0000 0000 000000
2014-02-17 00:18:59,0.29,13.54,0.00,25.85,30.30,33.04,5.94,32.33,1031.75,2023.15,923.01,1305.01,1423.28,349.32,325.03,33.06,0000 0000 0000 0000 000000
2014-02-17 00:19:59,0.11,13.54,0.00,25.85,30.30,33.08,6.13,32.42,1031.75,2023.14,922.94,1305.00,1423.10,350.00,325.39,33.07,0000 0000 0000 0000 000000
2014-02-17 00:20:59,0.22,13.54,0.00,25.85,30.30,33.05,6.11,32.50,1031.75,2023.19,922.68,1304.98,1423.03,349.77,325.72,33.07,0000 0000 0000 0000 000000
2014-02-17 00:21:59,0.46,13.54,0.00,25.85,30.30,33.03,6.02,32.50,1031.75,2023.30,922.35,1304.98,1423.01,349.43,325.13,33.08,0000 0000 0000 0000 000000
2014-02-17 00:22:59,0.49,13.55,0.00,25.85,30.30,33.02,6.05,32.50,1031.75,2023.39,922.14,1304.93,1423.00,349.65,325.38,33.08,0000 0000 0000 0000 000000
2014-02-17 00:24:00,0.37,13.55,0.00,25.85,30.30,33.04,5.99,32.46,1031.75,2023.41,922.05,1304.77,1422.98,349.87,325.54,33.09,0000 0000 0000 0000 000000
2014-02-17 00:25:00,0.28,13.55,0.00,25.85,30.30,33.03,6.03,32.50,1031.77,2023.42,922.00,1304.49,1422.87,349.80,325.52,33.09,0000 0000 0000 0000 000000
2014-02-17 00:26:00,0.38,13.55,0.00,25.85,30.30,33.02,6.13,32.54,1031.76,2023.48,921.97,1304.24,1422.64,350.76,326.61,33.10,0000 0000 0000 0000 000000
2014-02-17 00:27:00,0.44,13.55,0.00,25.85,30.30,33.01,6.19,32.54,1031.76,2023.38,921.93,1304.08,1422.30,350.72,326.33,33.11,0000 0000 0000 0000 000000
2014-02-17 00:28:01,0.16,13.55,0.00,25.84,30.30,33.03,6.04,32.46,1031.77,2023.35,921.73,1304.03,1422.14,349.55,325.31,33.11,0000 0000 0000 0000 000000
2014-02-17 00:29:01,0.42,13.56,0.00,25.85,30.30,33.06,6.13,32.50,1031.76,2023.32,921.36,1304.01,1422.05,349.71,325.52,33.12,0000 0000 0000 0000 000000
2014-02-17 00:30:01,0.38,13.56,0.00,25.84,30.30,33.06,6.13,32.58,1031.76,2023.19,921.15,1304.00,1422.02,350.44,326.07,33.12,0000 0000 0000 0000 000000
2014-02-17 00:31:02,0.06,13.56,0.00,25.85,30.30,33.02,6.03,32.46,1031.76,2023.14,921.05,1303.99,1422.00,350.26,326.04,33.13,0000 0000 0000 0000 000000
2014-02-17 00:32:02,0.05,13.56,0.00,25.85,30.30,32.98,6.06,32.46,1031.76,2023.12,921.01,1303.95,1421.98,350.32,326.15,33.14,0000 0000 0000 0000 000000
2014-02-17 00:33:02,0.08,13.56,0.00,25.85,30.29,33.00,6.05,32.33,1031.76,2023.13,921.00,1303.88,1421.82,349.99,325.68,33.14,0000 0000 0000 0000 000000
2014-02-17 00:34:02,0.16,13.56,0.00,25.84,30.29,33.01,5.95,32.17,1031.76,2023.06,920.88,1303.60,1421.44,349.91,325.82,33.15,0000 0000 0000 0000 000000
2014-02-17 00:35:03,0.53,13.57,0.00,25.84,30.29,33.01,6.06,32.21,1031.76,2023.03,920.54,1303.29,1421.17,349.68,325.36,33.15,0000 0000 0000 0000 000000
2014-02-17 00:36:03,0.69,13.57,0.00,25.84,30.29,33.01,6.08,32.29,1031.76,2023.06,920.30,1303.11,1421.06,348.65,324.87,33.16,0000 0000 0000 0000 000000
2014-02-17 00:37:03,0.54,13.57,0.00,25.84,30.29,33.05,6.00,32.25,1031.75,2023.09,920.11,1303.04,1421.02,349.66,325.34,33.16,0000 0000 0000 0000 000000
2014-02-17 00:38:04,0.34,13.57,0.00,25.83,30.29,33.03,6.02,32.50,1031.75,2023.12,920.04,1303.01,1421.00,349.49,325.20,33.17,0000 0000 0000 0000 000000
2014-02-17 00:39:04,0.15,13.57,0.00,25.82,30.29,33.06,6.01,32.38,1031.75,2023.12,920.01,1303.00,1420.99,349.60,325.31,33.18,0000 0000 0000 0000 000000
2014-02-17 00:40:04,0.03,13.57,0.00,25.82,30.29,33.05,6.00,32.29,1031.75,2023.09,919.99,1303.00,1420.94,350.53,326.18,33.18,0000 0000 0000 0000 000000
2014-02-17 00:41:04,0.00,13.58,0.00,25.82,30.29,33.06,6.08,32.21,1031.75,2023.07,919.94,1302.99,1420.86,350.25,325.92,33.19,0000 0000 0000 0000 000000
2014-02-17 00:42:05,0.06,13.58,0.00,25.82,30.29,33.09,6.24,32.46,1031.75,2023.06,919.90,1302.97,1420.53,350.31,325.97,33.19,0000 0000 0000 0000 000000
2014-02-17 00:43:05,0.23,13.58,0.00,25.82,30.29,33.08,6.08,32.29,1031.74,2023.07,919.65,1302.93,1420.28,350.12,325.80,33.20,0000 0000 0000 0000 000000
2014-02-17 00:44:05,0.43,13.58,0.00,25.82,30.29,33.07,6.08,32.46,1031.72,2023.08,919.30,1302.73,1420.11,349.71,325.41,33.21,0000 0000 0000 0000 000000
2014-02-17 00:45:06,0.69,13.58,0.00,25.82,30.28,33.12,6.08,32.08,1031.74,2023.08,919.11,1302.39,1420.04,350.50,326.14,33.21,0000 0000 0000 0000 000000
2014-02-17 00:46:06,0.54,13.59,0.00,25.82,30.28,33.11,6.12,32.29,1031.74,2023.10,919.04,1302.22,1420.01,349.96,325.64,33.22,0000 0000 0000 0000 000000
2014-02-17 00:47:06,0.27,13.59,0.00,25.82,30.28,33.11,6.07,32.25,1031.75,2023.07,919.01,1302.10,1420.00,350.09,325.77,33.22,0000 0000 0000 0000 000000
2014-02-17 00:48:06,0.11,13.59,0.00,25.81,30.28,33.07,5.90,32.04,1031.73,2023.05,918.97,1302.03,1419.97,349.75,325.88,33.23,0000 0000 0000 0000 000000
2014-02-17 00:49:07,0.05,13.59,0.00,25.81,30.28,33.05,6.07,32.13,1031.66,2023.06,918.72,1302.01,1419.81,349.64,325.34,33.24,0000 0000 0000 0000 000000
2014-02-17 00:50:07,0.50,13.59,0.00,25.80,30.28,33.04,6.02,32.46,1031.52,2023.03,918.38,1302.00,1419.51,349.59,325.41,33.24,0000 0000 0000 0000 000000
2014-02-17 00:51:07,0.55,13.60,0.00,25.80,30.27,33.04,6.17,32.46,1031.63,2023.07,918.17,1302.00,1419.23,350.76,326.55,33.25,0000 0000 0000 0000 000000
2014-02-17 00:52:07,0.37,13.60,0.00,25.80,30.28,33.03,5.89,32.25,1031.70,2023.07,918.06,1301.99,1419.08,349.06,324.72,33.25,0000 0000 0000 0000 000000
2014-02-17 00:53:08,0.17,13.60,0.00,25.80,30.28,33.04,6.13,32.50,1031.73,2023.06,918.02,1301.91,1419.03,350.01,326.06,33.26,0000 0000 0000 0000 000000
2014-02-17 00:54:08,0.14,13.60,0.00,25.80,30.28,33.07,6.20,32.46,1031.74,2023.04,918.00,1301.67,1419.01,350.71,326.25,33.26,0000 0000 0000 0000 000000
2014-02-17 00:55:08,0.23,13.60,0.00,25.80,30.28,33.13,6.16,32.13,1031.73,2023.02,917.96,1301.35,1419.00,349.48,325.08,33.27,0000 0000 0000 0000 000000
2014-02-17 00:56:08,0.28,13.60,0.00,25.80,30.27,33.13,6.10,32.08,1031.74,2023.00,917.75,1301.14,1418.98,349.51,325.11,33.28,0000 0000 0000 0000 000000
2014-02-17 00:57:08,0.42,13.60,0.00,25.79,30.27,33.13,6.17,32.54,1031.75,2023.00,917.40,1301.05,1418.82,348.95,324.74,33.28,0000 0000 0000 0000 000000
2014-02-17 00:58:09,0.58,13.61,0.00,25.79,30.27,33.14,6.03,32.50,1031.75,2023.00,917.17,1301.02,1418.45,350.19,325.89,33.29,0000 0000 0000 0000 000000
2014-02-17 00:59:09,0.49,13.61,0.00,25.78,30.27,33.10,6.07,32.33,1031.75,2023.00,917.06,1301.00,1418.23,350.13,325.85,33.29,0000 0000 0000 0000 000000
2014-02-17 01:00:09,0.21,13.61,0.00,25.77,30.27,33.13,6.07,32.33,1031.75,2023.01,917.02,1301.00,1418.10,349.18,325.47,33.30,0000 0000 0000 0000 000000
2014-02-17 01:01:09,0.11,13.61,0.00,25.77,30.27,33.09,6.13,32.46,1031.75,2023.02,917.00,1300.99,1418.03,349.92,326.06,33.31,0000 0000 0000 0000 000000
2014-02-17 01:02:09,0.07,13.61,0.00,25.77,30.27,33.04,6.09,32.33,1031.75,2023.03,916.96,1300.99,1418.01,350.08,325.82,33.31,0000 0000 0000 0000 000000
2014-02-17 01:03:09,0.07,13.61,0.00,25.77,30.27,33.04,6.06,32.54,1031.75,2023.03,916.81,1300.93,1417.98,350.17,325.90,33.32,0000 0000 0000 0000 000000
2014-02-17 01:04:10,0.28,13.62,0.00,25.77,30.27,33.05,6.01,32.21,1031.75,2023.02,916.52,1300.73,1417.97,350.45,326.16,33.32,0000 0000 0000 0000 000000
2014-02-17 01:05:10,0.42,13.62,0.00,25.77,30.27,33.06,5.97,32.13,1031.75,2023.03,916.23,1300.41,1417.89,349.76,325.99,33.33,0000 0000 0000 0000 000000
2014-02-17 01:06:10,0.76,13.62,0.00,25.77,30.27,33.12,5.97,32.50,1031.75,2023.01,916.09,1300.22,1417.66,350.25,326.20,33.33,0000 0000 0000 0000 000000
2014-02-17 01:07:10,0.38,13.62,0.00,25.77,30.27,33.11,6.07,32.08,1031.75,2023.00,916.03,1300.12,1417.30,351.15,326.82,33.34,0000 0000 0000 0000 000000
2014-02-17 01:08:11,0.33,13.63,0.00,25.76,30.27,33.09,6.08,32.21,1031.75,2023.02,916.00,1300.05,1417.11,350.66,326.07,33.35,0000 0000 0000 0000 000000
2014-02-17 01:09:11,0.16,13.63,0.00,25.75,30.27,33.10,5.97,32.33,1031.75,2023.03,915.98,1300.02,1417.04,349.53,325.15,33.35,0000 0000 0000 0000 000000
2014-02-17 01:10:11,0.12,13.63,0.00,25.75,30.27,33.06,6.12,32.21,1031.76,2023.02,915.90,1300.00,1417.01,350.33,325.99,33.36,0000 0000 0000 0000 000000
2014-02-17 01:11:11,0.07,13.63,0.00,25.75,30.27,33.10,5.99,32.29,1031.76,2023.02,915.55,1300.00,1417.00,349.41,325.61,33.36,0000 0000 0000 0000 000000
2014-02-17 01:12:12,0.49,13.63,0.00,25.75,30.27,33.10,6.05,32.42,1031.76,2023.03,915.22,1299.99,1416.99,349.89,325.88,33.37,0000 0000 0000 0000 000000
2014-02-17 01:13:12,0.40,13.63,0.00,25.75,30.27,33.12,5.92,32.33,1031.76,2023.04,915.08,1299.98,1416.93,350.00,325.69,33.38,0000 0000 0000 0000 000000
2014-02-17 01:14:12,0.20,13.64,0.00,25.75,30.27,33.13,6.18,32.29,1031.77,2023.03,915.02,1299.91,1416.71,350.48,326.20,33.38,0000 0000 0000 0000 000000
2014-02-17 01:15:12,0.19,13.64,0.00,25.75,30.27,33.13,6.18,32.33,1031.77,2023.03,915.00,1299.62,1416.39,351.08,326.77,33.39,0000 0000 0000 0000 000000
2014-02-17 01:16:13,0.47,13.64,0.00,25.74,30.27,33.09,6.18,32.50,1031.76,2023.04,914.99,1299.34,1416.16,349.76,325.55,33.39,0000 0000 0000 0000 000000
2014-02-17 01:17:13,0.39,13.64,0.00,25.74,30.27,33.10,6.13,32.58,1031.77,2023.05,914.94,1299.18,1416.06,349.43,325.28,33.40,0000 0000 0000 0000 000000
2014-02-17 01:18:13,0.17,13.64,0.00,25.74,30.27,33.10,6.05,32.50,1031.76,2023.03,914.58,1299.08,1416.02,349.85,325.60,33.40,0000 0000 0000 0000 000000
2014-02-17 01:19:13,0.59,13.65,0.00,25.74,30.27,33.11,6.24,32.42,1031.76,2023.03,914.26,1299.02,1416.00,349.93,325.71,33.41,0000 0000 0000 0000 000000
2014-02-17 01:20:13,0.45,13.65,0.00,25.74,30.27,33.12,6.16,32.67,1031.76,2023.04,914.10,1299.01,1415.98,350.53,325.89,33.42,0000 0000 0000 0000 000000
2014-02-17 01:21:13,0.19,13.65,0.00,25.73,30.27,33.10,6.08,32.17,1031.76,2023.01,914.03,1298.99,1415.94,350.12,325.90,33.42,0000 0000 0000 0000 000000
2014-02-17 01:22:13,0.06,13.65,0.00,25.73,30.27,33.09,5.91,32.21,1031.76,2023.00,914.01,1298.97,1415.69,348.83,324.70,33.43,0000 0000 0000 0000 000000
2014-02-17 01:23:14,0.16,13.65,0.00,25.72,30.27,33.09,6.22,32.33,1031.76,2023.01,913.97,1298.95,1415.40,349.99,325.79,33.43,0000 0000 0000 0000 000000
2014-02-17 01:24:14,0.18,13.65,0.00,25.72,30.27,33.11,6.13,32.50,1031.76,2023.02,913.92,1298.88,1415.19,350.64,326.40,33.44,0000 0000 0000 0000 000000
2014-02-17 01:25:14,0.21,13.65,0.00,25.72,30.27,33.12,5.91,32.21,1031.76,2023.02,913.74,1298.61,1415.09,349.04,324.90,33.45,0000 0000 0000 0000 000000
2014-02-17 01:26:15,0.52,13.66,0.00,25.72,30.26,33.10,5.97,32.38,1031.76,2023.02,913.41,1298.34,1415.03,349.75,325.56,33.45,0000 0000 0000 0000 000000
2014-02-17 01:27:15,0.69,13.66,0.00,25.72,30.26,33.07,6.03,32.50,1031.76,2023.03,913.16,1298.19,1415.01,350.53,326.29,33.46,0000 0000 0000 0000 000000
2014-02-17 01:28:15,0.44,13.66,0.00,25.72,30.26,33.08,6.07,32.42,1031.76,2023.03,913.05,1298.07,1415.00,350.27,326.05,33.46,0000 0000 0000 0000 000000
2014-02-17 01:29:15,0.22,13.66,0.00,25.72,30.25,33.10,6.05,32.63,1031.76,2023.03,913.02,1298.02,1414.96,349.79,325.60,33.47,0000 0000 0000 0000 000000
2014-02-17 01:30:16,0.12,13.67,0.00,25.72,30.25,33.09,6.05,32.38,1031.76,2023.06,913.00,1298.00,1414.70,350.12,325.90,33.47,0000 0000 0000 0000 000000
2014-02-17 01:31:16,0.19,13.67,0.00,25.72,30.25,33.10,6.11,32.50,1031.76,2023.03,912.95,1298.00,1414.39,349.38,325.22,33.48,0000 0000 0000 0000 000000
2014-02-17 01:32:16,0.15,13.67,0.00,25.72,30.25,33.08,6.01,32.54,1031.76,2023.01,912.88,1297.99,1414.15,349.79,325.36,33.49,0000 0000 0000 0000 000000
2014-02-17 01:33:17,0.20,13.67,0.00,25.72,30.25,33.11,6.18,32.58,1031.76,2023.00,912.56,1297.96,1414.06,350.34,326.11,33.49,0000 0000 0000 0000 000000
2014-02-17 01:34:17,0.48,13.67,0.00,25.72,30.25,33.11,6.06,32.21,1031.76,2023.03,912.27,1297.86,1414.02,349.46,325.30,33.50,0000 0000 0000 0000 000000
2014-02-17 01:35:17,0.46,13.67,0.00,25.72,30.25,33.09,6.16,32.38,1031.76,2023.04,912.11,1297.60,1414.00,349.94,325.61,33.50,0000 0000 0000 0000 000000
2014-02-17 01:36:18,0.42,13.68,0.00,25.71,30.25,33.10,6.19,32.29,1031.76,2023.03,912.04,1297.29,1413.99,350.47,326.38,33.51,0000 0000 0000 0000 000000
2014-02-17 01:37:18,0.31,13.68,0.00,25.70,30.25,33.11,6.02,32.50,1031.76,2023.02,912.01,1297.12,1413.98,349.98,325.85,33.52,0000 0000 0000 0000 000000
2014-02-17 01:38:18,0.15,13.68,0.00,25.70,30.25,33.10,6.07,32.42,1031.76,2023.04,912.00,1297.05,1413.95,349.82,325.65,33.52,0000 0000 0000 0000 000000
2014-02-17 01:39:19,0.13,13.68,0.00,25.70,30.25,33.09,6.00,32.21,1031.76,2023.04,911.94,1297.02,1413.70,350.65,326.43,33.53,0000 0000 0000 0000 000000
2014-02-17 01:40:19,0.23,13.68,0.00,25.70,30.25,33.10,5.94,32.29,1031.76,2023.04,911.80,1297.00,1413.34,349.43,325.27,33.53,0000 0000 0000 0000 000000
2014-02-17 01:41:19,0.39,13.68,0.00,25.70,30.25,33.11,5.83,32.38,1031.76,2023.04,911.43,1297.00,1413.13,349.58,325.76,33.54,0000 0000 0000 0000 000000
2014-02-17 01:42:19,0.55,13.69,0.00,25.70,30.25,33.10,6.00,32.42,1031.76,2023.05,911.17,1296.99,1413.05,350.00,326.26,33.55,0000 0000 0000 0000 000000
2014-02-17 01:43:19,0.33,13.69,0.00,25.70,30.25,33.09,6.23,32.54,1031.76,2023.03,911.06,1296.96,1413.01,350.34,326.13,33.55,0000 0000 0000 0000 000000
2014-02-17 01:44:19,0.14,13.69,0.00,25.69,30.24,33.10,6.10,32.29,1031.78,2023.01,911.02,1296.86,1413.00,351.10,326.38,33.56,0000 0000 0000 0000 000000
2014-02-17 01:45:20,0.10,13.69,0.00,25.69,30.24,33.08,6.28,32.63,1031.80,2023.03,910.99,1296.70,1413.00,351.25,327.01,33.56,0000 0000 0000 0000 000000
2014-02-17 01:46:20,0.22,13.69,0.00,25.69,30.23,33.05,6.06,32.33,1031.77,2023.03,910.95,1296.39,1412.95,350.13,325.95,33.57,0000 0000 0000 0000 000000
2014-02-17 01:47:20,0.39,13.69,0.00,25.68,30.22,33.07,6.01,32.33,1031.87,2023.07,910.76,1296.19,1412.75,349.55,325.67,33.57,0000 0000 0000 0000 000000
2014-02-17 01:48:20,0.52,13.70,0.00,25.67,30.22,33.05,6.07,32.00,1032.03,2023.08,910.42,1296.07,1412.38,350.39,326.30,33.58,0000 0000 0000 0000 000000
2014-02-17 01:49:21,0.70,13.70,0.00,25.67,30.22,33.08,6.05,32.33,1032.12,2023.08,910.20,1296.03,1412.17,349.97,325.94,33.59,0000 0000 0000 0000 000000
2014-02-17 01:50:21,0.35,13.70,0.00,25.67,30.22,33.05,6.08,32.33,1032.15,2023.05,910.08,1296.01,1412.06,349.71,325.68,33.59,0000 0000 0000 0000 000000
2014-02-17 01:51:21,0.17,13.70,0.00,25.67,30.22,33.08,6.06,32.38,1032.20,2023.03,910.03,1296.00,1412.02,350.34,326.31,33.60,0000 0000 0000 0000 000000
2014-02-17 01:52:21,0.07,13.70,0.00,25.67,30.22,33.07,6.01,32.33,1032.23,2023.04,910.01,1296.00,1412.00,350.32,326.23,33.60,0000 0000 0000 0000 000000
2014-02-17 01:53:22,0.05,13.70,0.00,25.67,30.22,33.06,5.97,32.38,1032.24,2023.05,909.99,1295.99,1411.99,350.09,325.90,33.61,0000 0000 0000 0000 000000
2014-02-17 01:54:22,0.04,13.71,0.00,25.66,30.22,33.05,6.17,32.50,1032.24,2023.09,909.93,1295.95,1411.95,349.93,326.36,33.62,0000 0000 0000 0000 000000
2014-02-17 01:55:22,0.17,13.71,0.00,25.65,30.22,33.05,6.05,32.25,1032.24,2023.15,909.72,1295.88,1411.84,350.51,326.13,33.62,0000 0000 0000 0000 000000
2014-02-17 01:56:22,0.49,13.71,0.00,25.65,30.22,33.06,6.10,32.17,1032.24,2023.15,909.36,1295.63,1411.49,349.57,325.63,33.63,0000 0000 0000 0000 000000
2014-02-17 01:57:23,0.76,13.71,0.00,25.65,30.22,33.06,6.00,32.50,1032.24,2023.15,909.16,1295.35,1411.23,349.89,326.07,33.63,0000 0000 0000 0000 000000
2014-02-17 01:58:23,0.66,13.72,0.00,25.65,30.22,33.06,6.08,32.29,1032.24,2023.14,909.06,1295.16,1411.11,350.42,326.42,33.64,0000 0000 0000 0000 000000
2014-02-17 01:59:23,0.29,13.72,0.00,25.64,30.20,33.04,5.98,32.38,1032.22,2023.07,909.02,1295.06,1411.04,349.98,326.01,33.64,0000 0000 0000 0000 000000
2014-02-17 02:00:23,0.08,13.72,0.00,25.63,30.20,33.07,6.02,32.33,1032.22,2023.07,909.00,1295.02,1411.01,349.38,325.47,33.65,0000 0000 0000 0000 000000
2014-02-17 02:01:24,0.04,13.72,0.00,25.62,30.20,33.06,5.94,32.54,1032.24,2023.08,908.98,1295.00,1411.00,350.21,326.26,33.66,0000 0000 0000 0000 000000
2014-02-17 02:02:24,0.09,13.72,0.00,25.62,30.20,33.06,6.05,32.38,1032.24,2023.07,908.84,1295.00,1410.99,349.64,325.46,33.66,0000 0000 0000 0000 000000
2014-02-17 02:03:24,0.15,13.72,0.00,25.62,30.20,33.06,6.08,32.50,1032.24,2023.06,908.56,1295.00,1410.92,350.34,326.37,33.67,0000 0000 0000 0000 000000
2014-02-17 02:04:25,0.36,13.72,0.00,25.62,30.20,33.02,6.21,32.33,1032.24,2023.06,908.24,1294.97,1410.69,350.40,326.43,33.67,0000 0000 0000 0000 000000
2014-02-17 02:05:25,0.52,13.73,0.00,25.62,30.20,33.01,6.08,32.33,1032.24,2023.12,908.10,1294.92,1410.39,350.00,326.06,33.68,0000 0000 0000 0000 000000
2014-02-17 02:06:25,0.41,13.73,0.00,25.62,30.20,32.99,6.19,32.46,1032.24,2023.19,908.03,1294.74,1410.16,350.65,326.66,33.69,0000 0000 0000 0000 000000
2014-02-17 02:07:26,0.44,13.73,0.00,25.62,30.20,33.00,6.13,32.42,1032.24,2023.27,908.01,1294.44,1410.06,349.52,325.61,33.69,0000 0000 0000 0000 000000
2014-02-17 02:08:26,0.41,13.73,0.00,25.62,30.20,33.03,6.02,32.50,1032.23,2023.23,908.00,1294.22,1410.02,349.94,326.00,33.70,0000 0000 0000 0000 000000
2014-02-17 02:09:26,0.23,13.73,0.00,25.62,30.19,33.03,6.16,32.42,1032.24,2023.27,907.97,1294.11,1410.00,350.23,326.28,33.70,0000 0000 0000 0000 000000
2014-02-17 02:10:26,0.24,13.74,0.00,25.62,30.18,33.04,6.14,32.42,1032.24,2023.30,907.84,1294.04,1409.99,349.87,325.57,33.71,0000 0000 0000 0000 000000
2014-02-17 02:11:27,0.23,13.74,0.00,25.62,30.18,33.03,6.08,32.21,1032.24,2023.28,907.46,1294.01,1409.96,350.04,326.09,33.71,0000 0000 0000 0000 000000
2014-02-17 02:12:27,0.49,13.74,0.00,25.62,30.18,33.02,6.04,32.29,1032.23,2023.23,907.19,1294.00,1409.86,350.02,326.46,33.72,0000 0000 0000 0000 000000
2014-02-17 02:13:27,0.28,13.74,0.00,25.62,30.17,33.00,6.13,32.46,1032.24,2023.25,907.07,1294.00,1409.51,349.78,325.83,33.73,0000 0000 0000 0000 000000
2014-02-17 02:14:27,0.31,13.74,0.00,25.62,30.17,33.00,6.18,32.46,1032.24,2023.19,907.02,1293.99,1409.24,349.97,326.18,33.73,0000 0000 0000 0000 000000
2014-02-17 02:15:28,0.11,13.74,0.00,25.62,30.17,33.03,5.93,32.38,1032.24,2023.15,907.00,1293.92,1409.09,349.60,326.00,33.74,0000 0000 0000 0000 000000
2014-02-17 02:16:28,0.16,13.75,0.00,25.62,30.17,33.01,6.13,32.42,1032.24,2023.29,906.98,1293.78,1409.03,350.15,326.22,33.74,0000 0000 0000 0000 000000
2014-02-17 02:17:28,0.36,13.75,0.00,25.61,30.17,32.95,6.09,32.13,1032.23,2023.53,906.93,1293.58,1409.01,349.42,325.53,33.75,0000 0000 0000 0000 000000
2014-02-17 02:18:29,0.61,13.75,0.00,25.61,30.17,32.99,5.97,32.58,1032.21,2023.66,906.63,1293.32,1409.00,349.52,325.61,33.76,0000 0000 0000 0000 000000
2014-02-17 02:19:29,0.76,13.75,0.00,25.61,30.17,33.00,6.11,32.38,1032.14,2023.76,906.33,1293.16,1409.00,350.22,326.25,33.76,0000 0000 0000 0000 000000
2014-02-17 02:20:29,0.57,13.76,0.00,25.60,30.17,33.01,6.09,32.79,1032.06,2023.72,906.13,1293.06,1408.96,349.88,325.59,33.77,0000 0000 0000 0000 000000
2014-02-17 02:21:29,0.32,13.76,0.00,25.61,30.17,32.98,6.14,32.50,1032.11,2023.76,906.04,1293.02,1408.73,350.41,326.41,33.77,0000 0000 0000 0000 000000
2014-02-17 02:22:30,0.29,13.76,0.00,25.60,30.17,32.96,6.12,32.33,1032.15,2023.74,906.01,1293.00,1408.47,350.40,326.58,33.78,0000 0000 0000 0000 000000
2014-02-17 02:23:30,0.12,13.76,0.00,25.60,30.17,32.98,6.08,32.33,1032.10,2023.63,905.98,1293.00,1408.21,350.57,326.37,33.78,0000 0000 0000 0000 000000
2014-02-17 02:24:30,0.01,13.76,0.00,25.60,30.16,32.97,6.13,32.21,1032.07,2023.53,905.96,1293.00,1408.07,351.57,327.50,33.79,0000 0000 0000 0000 000000
2014-02-17 02:25:30,-0.02,13.76,0.00,25.60,30.16,32.96,6.07,32.13,1032.02,2023.51,905.82,1292.94,1408.02,350.14,326.15,33.80,0000 0000 0000 0000 000000
2014-02-17 02:26:30,0.26,13.76,0.00,25.60,30.15,33.00,6.07,32.50,1032.02,2023.58,905.49,1292.76,1408.00,350.00,326.02,33.80,0000 0000 0000 0000 000000
2014-02-17 02:27:31,0.68,13.77,0.00,25.60,30.15,33.02,6.25,32.42,1031.90,2023.67,905.20,1292.44,1408.00,350.57,326.70,33.81,0000 0000 0000 0000 000000
2014-02-17 02:28:31,0.65,13.77,0.00,25.60,30.15,32.98,6.10,32.58,1031.90,2023.65,905.07,1292.21,1408.00,349.91,325.81,33.81,0000 0000 0000 0000 000000
2014-02-17 02:29:31,0.33,13.78,0.00,25.60,30.15,32.99,6.13,32.54,1032.00,2023.60,905.02,1292.09,1407.83,349.98,325.83,33.82,0000 0000 0000 0000 000000
2014-02-17 02:30:31,0.15,13.78,0.00,25.60,30.15,32.99,6.01,32.58,1032.15,2023.50,905.00,1292.04,1407.43,350.50,326.52,33.83,0000 0000 0000 0000 000000
2014-02-17 02:31:32,0.17,13.78,0.00,25.59,30.15,33.02,6.16,32.67,1032.20,2023.48,904.97,1292.01,1407.19,350.23,326.14,33.83,0000 0000 0000 0000 000000
2014-02-17 02:32:32,0.17,13.78,0.00,25.58,30.15,32.99,5.99,32.38,1032.23,2023.52,904.88,1291.99,1407.07,350.01,326.11,33.84,0000 0000 0000 0000 000000
2014-02-17 02:33:33,0.26,13.78,0.00,25.58,30.15,32.98,5.97,32.25,1032.24,2023.69,904.58,1291.97,1407.02,349.74,325.86,33.84,0000 0000 0000 0000 000000
2014-02-17 02:34:33,0.53,13.78,0.00,25.57,30.14,32.98,6.12,32.50,1032.22,2023.74,904.26,1291.97,1407.00,350.01,325.71,33.85,0000 0000 0000 0000 000000
2014-02-17 02:35:33,0.50,13.79,0.00,25.57,30.14,32.98,5.91,32.38,1032.21,2023.76,904.09,1291.91,1407.00,349.68,325.80,33.86,0000 0000 0000 0000 000000
2014-02-17 02:36:34,0.36,13.79,0.00,25.57,30.13,32.99,6.08,32.00,1032.24,2023.77,904.03,1291.70,1406.98,350.46,326.54,33.86,0000 0000 0000 0000 000000